Home   Weather   Celle   Past weeks

Flag for Germany Past Weather in Celle, Lower Saxony, Germany — Yesterday and Last 2 Weeks

54 °F

Drizzle. Fog.

Feels Like: 49 °F
Forecast: 48 / 53 °F
Wind: 14 mph from West

Location: Celle Airport

Current Time: Oct 28, 2016 at 2:08:31 PM

Latest Report: Oct 28, 2016 at 1:20 PM

Visibility: 2 mi

Pressure: 30.36 "Hg

Humidity: 94%

Dew Point: 52 °F

Location of CelleLocation

Past Weather in Celle — Graph


Celle Temperature Yesterday

Maximum temperature yesterday: 54 °F (at 1:20 PM)
Minimum temperature yesterday: 45 °F (at 12:20 AM)
Average temperature yesterday: 50 °F

High & Low Weather Summary for the Past Weeks

High63 °F (Oct 16, 3:20 PM)100% (Oct 16, 1:20 AM)30.45 "Hg (Oct 16, 1:20 AM)
Low32 °F (Oct 26, 3:20 AM)54% (Oct 23, 3:20 PM)29.77 "Hg (Oct 15, 2:20 AM)
Average47 °F91%30.08 "Hg
* Reported Oct 13 12:20 PM — Oct 28 12:20 PM, Celle, Weather by CustomWeather, © 2016

Note: Actual official high and low records may vary slightly from our data, if they occured in-between our weather recording intervals... More about our weather records


Celle Weather History for the Previous 24 Hours

Scroll right to see more
Time TempWeatherWind HumidityBarometerVisibility
12:20 PM
Fri, Oct 28
54 °FDrizzle. Mostly cloudy.15 mph94%30.36 "Hg2 mi
11:50 AM54 °FDrizzle. More clouds than sun.16 mph88%30.36 "Hg4 mi
11:20 AM54 °FPartly sunny.16 mph88%30.36 "HgN/A
10:20 AM54 °FPartly sunny.16 mph88%30.36 "Hg6 mi
9:20 AM54 °FBroken clouds.16 mph82%30.36 "Hg5 mi
8:20 AM54 °FBroken clouds.13 mph82%30.33 "Hg4 mi
7:20 AM54 °FPassing clouds.15 mph82%30.33 "Hg4 mi
6:20 AM52 °FPassing clouds.15 mph88%30.33 "Hg4 mi
5:20 AM52 °FPartly cloudy.14 mph82%30.36 "Hg4 mi
4:20 AM50 °FPassing clouds.10 mph94%30.36 "Hg4 mi
3:20 AM52 °FPassing clouds.14 mph88%30.39 "Hg5 mi
2:20 AM52 °FPassing clouds.12 mph88%30.39 "Hg5 mi
1:20 AM52 °FPassing clouds.10 mph88%30.42 "Hg4 mi
12:20 AM52 °FPartly cloudy.9 mph88%30.42 "Hg4 mi
11:20 PM
Thu, Oct 27
50 °FPassing clouds.7 mph94%30.42 "Hg4 mi
10:20 PM50 °FFog.7 mph94%30.42 "Hg3 mi
9:54 PM50 °FFog.8 mph94%30.45 "Hg3 mi
9:20 PM50 °FFog.9 mph94%30.45 "Hg3 mi
8:20 PM48 °FFog.3 mph100%30.45 "Hg2 mi
7:20 PM50 °FFog.5 mph94%30.42 "Hg2 mi
6:49 PM52 °FFog.6 mph88%30.45 "Hg3 mi
6:20 PM52 °FFog.7 mph94%30.45 "Hg3 mi
5:51 PM54 °FFog.8 mph88%30.45 "Hg3 mi
5:20 PM54 °FFog.9 mph88%30.45 "Hg3 mi
4:52 PM54 °FPartly sunny.7 mph88%30.45 "Hg4 mi
4:20 PM54 °FFog.7 mph88%30.45 "Hg3 mi
3:54 PM54 °FFog.8 mph88%30.45 "Hg3 mi
3:20 PM54 °FFog.8 mph88%30.45 "Hg3 mi
2:20 PM54 °FFog.9 mph88%30.45 "Hg3 mi
Weather by CustomWeather, © 2016

See weather overviewHow to use our weather pages